sat.trackr.live / text

‹ back to catalog

STARLINK-4542

NORAD 53435 · 2022-097AZ

PAYLOAD ACTIVE UNKNOWN

§ Identity

Operator
Country
US
Launch date
2022-08-10
Launch site
AFETR
Launch vehicle
Mass (kg)
RCS (m²)

Purposes: comms

External: N2YO · Heavens-Above · Gunter

§ Orbital elements

Epoch: 2026-09-19T15:45:00.524448Z

Period
93.85 min
Inclination
53.1586°
Eccentricity
0.0001436
Mean motion
15.34392162 rev/d
Perigee alt
461.7 km
Apogee alt
463.7 km
Semi-major
6,840.9 km
B*
1.2039e-5
RAAN
297.4605°
Arg perigee
44.8886°
Mean anomaly
315.2232°
Rev number
22,826

§ Raw data

STARLINK-45421 53435U 22097AZ  26262.65625607  .00000030  00000+0  12039-4 0  99962 53435  53.1586 297.4605 0001436  44.8886 315.2232 15.34392162228269

JSON: /api/v1/satellites/53435 · /tle

For live sub-satellite position, see the globe view (requires WebGL).

§ Visibility from observer

Set your observer location to see the next 7 days of passes ≥ 10°. The values pass through the URL so the page stays shareable.

No JS? Fill the form by hand. The geolocation button needs JavaScript.